Temperature
18 18 17 18 19 20 19 19 18 20 20 19 18 19 19 20 19 19 19 18 16 15 14 14 14 14 14 14 13 13 13 12 11 11 10 10 10 10 10 10 10 9 9 9
18 17 19 20 20 19 18 18 18 19 19 19 18 18 19 19 19 19 19 17 16 15 14 13 13 13 13 13 13 13 13 12 12 11 11 10 10 10 10 10 10 9 9 9
18 19 19 19 19 18 18 17 18 19 19 18 17 17 18 18 19 19 19 17 16 15 14 13 13 13 13 13 13 13 13 12 12 12 11 11 11 10 10 10 10 9 9 9
19 20 19 18 18 18 17 19 19 18 17 17 18 16 18 17 17 17 18 17 16 15 14 13 13 13 13 13 13 13 13 12 12 12 12 11 11 10 10 9 9 9 9 8
18 19 18 17 18 18 18 18 18 18 17 16 17 17 17 17 16 16 16 17 16 15 13 13 13 13 13 13 13 13 13 12 12 12 11 11 10 10 9 9 9 9 8 8
18 19 18 18 18 18 18 17 17 16 15 15 17 17 17 17 17 16 16 17 15 14 13 13 13 13 13 13 13 12 12 12 12 11 11 11 10 10 9 9 8 8 8 7
17 18 18 18 16 16 17 16 15 15 14 15 19 18 18 19 18 17 17 16 15 14 13 12 12 12 12 12 12 12 12 11 11 11 10 10 10 9 9 8 8 8 7 7
16 17 17 17 16 16 15 16 16 16 16 17 17 17 18 18 18 19 18 16 15 14 13 12 12 12 12 12 11 11 11 11 11 10 10 9 9 9 8 8 7 7 7 6
17 17 18 17 17 17 16 16 17 16 17 16 17 18 16 17 16 17 17 16 15 14 13 12 12 11 11 11 11 11 11 10 10 10 9 9 9 8 8 7 7 6 6 6
18 17 16 15 16 16 16 17 16 15 15 15 18 18 16 15 15 16 15 15 15 14 13 12 11 11 11 10 10 10 10 10 10 9 9 8 8 7 7 7 6 6 6 5
17 17 15 14 14 15 15 16 16 16 16 16 16 17 17 16 16 15 15 16 15 14 13 12 11 11 10 10 10 10 9 9 9 8 8 8 7 7 6 6 6 5 5 5
17 17 15 15 16 16 16 16 16 15 16 16 15 16 18 17 17 16 16 16 15 14 13 12 11 10 10 9 9 9 9 8 8 8 7 7 6 6 6 6 5 5 5 5
16 16 15 15 14 14 15 16 16 16 16 15 14 16 16 16 16 17 16 16 15 14 13 12 11 10 9 9 8 8 8 8 7 7 7 6 6 6 5 5 5 5 4 4
16 16 16 16 16 15 14 15 16 15 14 14 15 16 15 15 15 15 16 15 14 13 12 11 10 9 9 8 8 7 7 7 7 6 6 6 5 5 5 4 4 4 4 3
15 15 16 17 17 17 16 16 15 15 15 14 16 16 17 16 15 15 15 14 13 12 11 11 10 9 8 8 7 7 7 6 6 6 6 5 5 5 4 4 4 3 3 3
14 14 15 15 16 16 15 16 15 15 15 15 15 15 17 17 17 16 15 14 13 11 11 10 9 8 8 7 7 6 6 6 6 5 5 5 4 4 4 3 3 3 2 2
13 14 14 14 15 14 13 14 15 15 15 15 14 15 16 15 15 15 14 13 12 11 10 9 8 8 7 7 6 6 6 5 5 5 5 4 4 3 3 3 2 2 1 1
14 13 13 12 13 11 14 16 16 15 15 15 15 15 15 14 14 14 13 13 11 10 9 8 8 7 7 6 6 6 5 5 5 4 4 4 3 3 2 2 2 1 1 0
12 13 12 11 11 12 15 15 15 14 14 15 15 14 13 12 11 11 11 11 10 9 8 8 7 7 6 6 5 5 5 4 4 4 3 3 2 2 1 1 1 0 -0 -0
11 12 11 10 10 10 14 13 14 14 12 14 14 13 11 10 8 9 10 10 9 8 7 7 6 6 6 5 5 4 4 4 4 3 3 2 2 1 1 0 0 -0 -1 -1
9 10 10 10 9 11 13 12 13 12 12 13 13 13 11 9 9 10 9 9 8 7 7 6 6 5 5 4 4 4 4 3 3 2 2 2 1 1 0 -0 -1 -1 -2 -2
10 9 9 10 9 10 11 11 11 12 12 12 12 12 11 10 9 9 8 7 7 6 6 5 5 5 4 4 4 3 3 2 2 2 1 1 1 0 -0 -1 -1 -1 -2 -3
12 12 11 11 11 12 12 12 12 12 12 11 11 11 10 9 8 8 7 6 6 6 5 5 5 4 4 4 3 3 2 2 1 1 1 1 0 -0 -1 -1 -2 -2 -3 -3
12 12 12 12 12 11 12 12 12 11 11 11 10 10 10 9 8 7 6 6 5 5 5 4 4 4 4 3 3 2 2 1 1 0 0 -0 -1 -1 -1 -2 -2 -3 -3 -4
12 10 10 11 12 11 11 11 11 10 10 10 9 9 8 8 7 6 6 5 5 4 4 4 4 3 3 3 2 2 1 1 0 -0 -0 -1 -1 -2 -2 -2 -3 -3 -4 -4
11 10 10 10 11 10 11 11 10 10 9 9 8 8 7 7 6 6 5 5 4 4 4 3 3 3 2 2 2 1 1 0 -1 -1 -1 -1 -2 -2 -3 -3 -3 -3 -4 -5
Wind_Speed
8 6 8 10 10 8 8 9 11 8 2 2 8 10 7 6 6 6 7 9 9 9 8 7 8 9 9 8 9 8 8 6 5 4 4 3 3 2 1 2 4 5 7 8
8 12 13 11 6 4 7 10 11 9 2 2 8 10 7 7 8 8 9 10 10 10 9 8 8 8 8 8 8 8 8 7 6 5 4 3 3 2 2 2 4 6 7 8
15 7 3 4 5 6 9 11 11 8 3 6 6 8 9 8 7 7 8 10 10 10 10 9 9 9 8 8 7 7 8 8 7 6 5 3 2 1 1 1 2 4 6 7
12 11 6 6 8 8 9 6 5 6 5 5 6 5 5 10 9 9 9 10 10 10 10 9 9 9 8 7 7 8 8 8 7 6 5 4 2 1 2 1 2 3 5 5
7 6 6 8 9 8 4 3 3 5 7 8 8 6 6 12 12 12 11 11 11 11 10 10 9 9 8 7 7 7 8 7 6 5 4 2 2 1 1 1 1 2 2 3
10 3 6 5 0 2 2 1 5 5 4 6 10 10 6 11 15 15 13 12 12 11 11 10 9 9 8 6 6 7 7 7 6 5 4 4 3 3 2 2 2 2 2 1
9 10 7 4 4 2 4 4 4 5 5 8 3 5 5 7 12 15 15 14 13 11 11 10 10 9 8 8 6 7 7 6 5 5 4 4 3 2 1 2 2 3 3 3
10 10 14 9 8 7 9 7 5 4 3 1 2 5 1 6 5 10 15 15 14 12 11 10 10 9 9 8 7 7 7 6 5 4 3 3 3 1 1 2 2 3 3 3
7 5 5 7 6 5 7 8 5 5 7 4 5 5 4 4 4 5 12 14 14 12 11 11 10 10 9 8 7 7 6 5 4 3 3 3 2 2 2 3 3 3 3 4
6 2 6 4 1 4 5 3 4 4 4 5 7 8 7 9 8 8 10 13 13 12 11 11 10 9 8 7 6 6 6 5 4 3 2 1 2 2 2 3 4 5 5 5
8 4 6 5 9 9 7 4 5 5 5 3 4 2 3 10 11 11 10 11 12 12 12 10 9 9 9 8 7 6 5 4 3 2 1 1 2 2 3 4 5 5 5 6
8 4 5 6 4 1 8 9 8 5 5 4 3 3 2 6 7 9 10 10 11 11 10 10 10 9 9 8 6 5 4 3 3 2 1 2 2 3 4 5 6 6 7 7
8 5 4 4 1 3 5 8 9 7 4 4 4 4 2 5 6 7 9 10 10 10 10 9 9 9 8 7 6 5 4 3 3 1 1 3 3 4 5 6 6 7 7 8
3 5 7 5 2 7 6 9 10 7 5 6 9 7 5 8 8 8 8 10 10 10 10 9 8 8 7 6 5 4 3 3 2 0 2 3 4 5 6 7 7 8 8 9
3 4 7 6 1 4 5 8 11 12 11 8 9 10 7 6 8 9 10 10 10 10 9 9 8 7 7 6 5 4 3 2 1 1 3 4 5 6 7 7 8 8 9 10
4 4 4 5 3 3 6 8 9 12 12 13 13 14 8 0 4 7 10 11 11 10 10 9 8 7 6 5 4 3 2 1 0 2 4 5 6 7 7 8 9 9 10 10
7 5 3 4 4 1 7 11 13 11 10 10 13 10 2 2 4 5 6 8 10 10 9 9 8 6 5 5 4 3 1 0 1 4 6 6 7 8 8 9 9 10 10 10
6 5 3 3 3 8 8 2 6 10 11 11 9 5 3 4 4 3 4 7 9 9 9 8 7 6 5 4 3 2 1 2 4 6 7 7 7 8 9 9 10 10 9 10
1 5 4 4 5 8 7 5 5 5 7 7 7 4 6 8 6 2 3 6 8 8 8 7 7 6 4 4 3 2 2 4 5 7 8 8 8 8 9 10 10 10 9 10
2 2 4 5 5 7 3 2 3 3 6 4 4 5 8 8 4 4 7 9 9 9 8 7 6 4 3 3 2 2 4 5 7 8 7 7 7 8 10 10 11 9 9 11
5 4 6 7 7 8 3 5 5 5 6 1 4 6 9 7 5 5 9 9 9 9 8 6 5 3 3 2 1 3 6 7 8 7 7 8 8 9 10 10 9 10 10 10
10 9 8 7 7 9 7 8 8 5 3 3 4 5 7 7 7 8 9 8 8 7 6 5 3 2 2 2 3 5 7 8 7 7 8 9 9 9 9 10 10 10 10 11
9 10 7 9 9 2 8 6 4 4 4 4 4 5 8 9 7 8 8 8 7 6 5 4 3 2 3 3 4 6 7 7 7 8 9 9 10 9 9 10 10 9 9 9
6 3 3 4 5 6 6 4 4 4 4 5 5 6 8 8 8 8 7 6 6 5 4 3 2 3 4 5 5 7 8 7 8 9 9 9 9 9 9 8 8 8 8 9
6 7 5 5 3 5 6 7 6 6 5 5 5 6 8 9 8 8 6 6 5 4 3 3 3 4 6 6 7 8 8 7 8 9 9 9 9 9 9 9 8 10 9 11
5 7 7 5 4 5 5 7 8 8 7 7 7 6 6 7 8 7 6 5 4 3 2 2 4 6 7 7 8 8 8 8 9 9 9 8 8 8 8 10 11 15 17 23
Wind_Direction
197 220 236 242 244 262 306 310 303 299 126 209 259 265 241 180 180 185 151 128 116 108 101 91 86 87 87 93 104 114 122 124 116 117 128 130 134 131 143 214 238 241 242 244
226 228 242 256 283 314 293 283 279 280 152 213 271 269 245 183 183 177 152 136 128 122 113 107 100 93 93 96 102 109 114 114 108 108 109 109 115 133 161 201 229 244 249 249
229 229 186 226 243 251 254 254 267 293 321 240 256 271 220 171 164 150 142 133 132 133 129 118 106 97 89 86 92 101 102 102 101 106 102 94 92 78 181 216 228 237 245 248
239 237 201 214 236 238 258 270 275 295 299 277 209 270 194 166 166 166 162 144 137 129 125 120 112 102 95 90 90 96 99 99 104 112 116 134 146 167 201 195 211 231 232 233
229 194 191 225 239 245 252 35 316 278 270 279 255 249 235 162 180 183 175 154 141 133 128 122 117 114 109 106 103 104 103 104 106 106 112 110 92 79 45 26 345 309 284 247
249 202 192 220 173 318 111 221 251 253 255 260 231 214 244 180 190 181 173 156 145 137 133 128 124 119 116 114 111 113 111 108 105 100 100 91 76 41 18 354 342 321 304 284
236 227 194 159 153 171 182 214 238 214 215 241 216 197 257 176 174 174 169 157 149 144 143 144 143 138 136 134 131 125 118 115 111 102 94 91 82 49 16 354 350 336 325 315
216 223 194 184 196 188 194 218 238 263 247 165 176 225 229 75 92 156 156 152 150 152 153 154 152 145 143 143 140 127 119 114 105 97 87 78 72 50 10 351 328 311 300 296
228 204 127 156 196 225 199 214 254 305 301 285 244 190 110 94 87 123 147 151 157 159 157 156 153 149 147 146 137 126 122 114 103 94 80 64 49 26 349 327 310 299 294 294
266 198 135 96 109 247 279 264 181 206 245 254 254 220 191 176 180 175 164 161 162 160 159 158 156 153 148 140 127 121 118 115 109 93 81 55 8 3 337 315 303 296 295 295
233 237 143 161 200 197 192 233 226 228 256 264 284 317 47 160 173 179 180 170 165 164 163 160 157 149 139 131 130 127 122 119 110 93 67 23 344 331 314 299 294 297 297 298
202 241 209 184 172 191 197 205 207 218 236 224 262 285 67 106 139 162 170 168 164 162 159 156 150 143 140 140 142 139 135 126 115 93 31 336 317 310 303 300 302 304 301 298
178 211 213 160 194 207 223 222 225 245 282 259 244 240 116 122 134 152 160 159 155 152 151 149 147 147 146 146 145 141 137 128 115 88 334 310 307 306 301 300 302 302 298 294
186 230 230 221 134 163 196 209 213 217 225 240 237 248 208 189 181 174 165 157 151 152 151 149 148 147 143 142 139 134 128 119 111 56 300 297 297 297 295 296 297 295 292 290
178 243 258 276 46 156 205 206 203 214 227 237 251 263 258 209 192 179 166 157 153 154 153 151 151 146 141 140 135 126 121 116 109 293 288 285 289 293 294 293 291 289 287 287
195 238 266 264 245 236 250 242 227 223 232 244 262 270 283 254 146 157 163 162 162 161 158 152 148 144 145 141 132 125 132 128 79 287 284 288 291 291 288 286 285 286 285 284
182 208 215 245 232 263 251 229 230 231 224 224 244 255 262 144 149 159 163 162 161 158 151 149 149 145 139 131 128 137 144 122 285 279 279 282 282 282 281 283 286 285 286 285
185 197 209 216 194 233 236 205 217 231 241 231 234 224 172 146 116 89 126 152 150 144 143 143 138 131 124 120 125 130 150 268 271 272 274 274 273 276 279 281 283 284 283 285
313 193 185 180 230 261 247 206 187 208 256 237 232 204 128 102 78 55 106 124 134 131 132 131 128 128 130 139 151 167 239 261 267 268 269 269 271 277 281 283 283 284 286 288
296 269 194 185 211 236 236 128 114 128 264 252 191 158 136 123 158 214 140 112 111 114 115 118 120 125 144 168 164 207 256 265 268 268 270 276 279 280 281 281 282 284 284 285
167 192 206 208 223 249 193 154 131 175 238 99 124 141 149 169 182 143 125 115 115 116 118 123 132 148 176 180 188 250 264 266 268 274 281 281 279 277 278 279 280 281 282 283
174 180 195 196 222 241 162 156 187 201 142 130 138 148 147 130 112 118 121 121 123 126 132 140 149 177 195 205 235 258 265 268 275 280 280 279 278 280 284 281 281 280 283 286
190 190 190 196 211 200 162 175 156 129 144 148 152 146 140 138 141 137 135 135 138 144 151 154 168 210 240 244 248 264 272 278 281 281 279 279 280 279 279 280 283 286 284 284
203 169 197 223 197 168 171 150 145 151 153 145 146 147 146 148 148 148 148 149 152 156 160 167 190 238 261 267 268 266 273 277 278 280 281 281 283 284 281 280 280 282 282 284
177 161 193 235 204 150 193 199 182 167 153 141 136 143 149 146 149 153 155 157 159 162 169 182 216 248 264 273 275 274 276 279 279 279 280 282 281 282 284 280 277 281 273 277
173 170 184 213 195 184 194 185 173 166 169 162 150 141 134 141 147 148 152 154 157 167 181 215 241 254 265 271 275 277 276 275 277 281 281 281 282 282 282 286 288 280 280 289
Height
1517 1520 1520 1516 1513 1513 1513 1515 1516 1509 1505 1508 1509 1507 1502 1502 1504 1506 1508 1510 1512 1514 1514 1513 1513 1513 1514 1515 1517 1518 1520 1523 1525 1527 1529 1531 1532 1534 1535 1536 1536 1537 1537 1537
1515 1516 1511 1509 1509 1511 1514 1518 1516 1508 1504 1506 1507 1504 1498 1498 1500 1503 1505 1508 1511 1513 1514 1514 1514 1514 1515 1516 1518 1519 1521 1523 1524 1526 1528 1529 1531 1532 1532 1533 1533 1534 1534 1533
1511 1507 1506 1508 1510 1513 1515 1517 1514 1510 1505 1504 1507 1505 1497 1496 1498 1501 1504 1507 1510 1512 1514 1515 1515 1515 1516 1517 1518 1520 1521 1523 1524 1526 1527 1528 1529 1530 1531 1531 1531 1531 1530 1530
1503 1501 1504 1507 1509 1511 1515 1507 1507 1509 1514 1512 1507 1515 1497 1495 1498 1500 1503 1506 1509 1512 1513 1514 1515 1515 1517 1518 1519 1520 1522 1523 1524 1525 1527 1527 1528 1529 1529 1529 1529 1528 1528 1527
1499 1498 1503 1507 1506 1506 1507 1507 1508 1509 1513 1516 1506 1511 1498 1493 1498 1499 1501 1504 1507 1510 1512 1513 1514 1515 1517 1518 1520 1521 1522 1523 1524 1525 1526 1527 1527 1528 1528 1527 1527 1526 1525 1524
1496 1496 1499 1501 1502 1504 1505 1508 1509 1511 1515 1522 1501 1506 1497 1490 1489 1493 1497 1501 1505 1508 1511 1512 1514 1515 1517 1518 1520 1521 1522 1523 1524 1525 1525 1526 1526 1526 1525 1525 1524 1523 1522 1521
1498 1495 1496 1499 1504 1506 1508 1515 1521 1523 1526 1516 1487 1492 1488 1475 1477 1483 1490 1496 1502 1506 1509 1511 1513 1514 1516 1518 1519 1521 1522 1522 1523 1524 1524 1524 1524 1523 1523 1522 1521 1520 1518 1517
1498 1496 1491 1494 1498 1503 1506 1508 1516 1517 1511 1499 1495 1495 1484 1475 1475 1479 1486 1493 1499 1504 1507 1509 1511 1513 1515 1517 1518 1520 1521 1521 1522 1522 1522 1522 1521 1520 1520 1518 1517 1516 1514 1513
1488 1490 1484 1488 1492 1496 1500 1504 1498 1506 1502 1504 1493 1483 1484 1477 1479 1481 1485 1490 1495 1500 1504 1507 1510 1512 1513 1515 1517 1518 1519 1519 1520 1520 1520 1519 1518 1517 1516 1515 1513 1512 1510 1508
1480 1486 1489 1491 1493 1494 1495 1494 1501 1508 1511 1510 1490 1483 1484 1484 1482 1483 1485 1489 1493 1498 1502 1505 1508 1510 1512 1513 1515 1516 1517 1517 1517 1517 1516 1516 1515 1514 1512 1511 1509 1507 1505 1503
1479 1486 1493 1495 1494 1493 1496 1496 1495 1497 1495 1504 1502 1488 1473 1474 1476 1480 1483 1486 1491 1495 1499 1502 1505 1508 1510 1511 1512 1513 1514 1514 1514 1514 1513 1512 1511 1510 1508 1507 1505 1503 1501 1498
1476 1481 1486 1487 1483 1483 1485 1488 1492 1500 1496 1492 1499 1492 1471 1471 1473 1476 1480 1484 1489 1493 1497 1500 1503 1505 1507 1508 1510 1511 1511 1511 1511 1511 1510 1509 1508 1506 1504 1502 1500 1498 1495 1493
1474 1480 1487 1491 1491 1487 1485 1483 1483 1486 1490 1494 1499 1490 1474 1473 1474 1475 1478 1482 1486 1490 1494 1497 1500 1502 1504 1505 1507 1508 1508 1508 1508 1507 1506 1505 1504 1502 1500 1498 1495 1492 1489 1486
1470 1474 1478 1481 1478 1479 1482 1481 1480 1485 1493 1492 1487 1479 1476 1474 1473 1474 1476 1479 1483 1487 1491 1494 1497 1499 1501 1503 1504 1504 1505 1504 1504 1503 1502 1501 1499 1497 1495 1492 1490 1486 1483 1479
1470 1474 1470 1468 1467 1470 1472 1475 1477 1481 1481 1485 1478 1473 1468 1468 1469 1471 1474 1477 1481 1485 1488 1491 1494 1496 1498 1500 1501 1501 1501 1501 1500 1499 1498 1496 1494 1492 1489 1486 1483 1480 1476 1473
1469 1472 1470 1470 1468 1469 1472 1471 1472 1474 1474 1474 1472 1470 1463 1463 1465 1468 1471 1474 1478 1481 1485 1488 1491 1493 1495 1496 1497 1498 1497 1497 1496 1495 1493 1491 1489 1486 1483 1480 1477 1473 1469 1466
1468 1471 1473 1476 1469 1472 1477 1468 1467 1467 1464 1466 1470 1465 1462 1463 1464 1466 1469 1471 1474 1478 1482 1485 1488 1490 1492 1493 1493 1494 1493 1493 1492 1490 1488 1486 1483 1480 1477 1474 1470 1466 1462 1458
1464 1468 1472 1476 1476 1488 1466 1454 1454 1457 1456 1457 1457 1457 1459 1461 1464 1466 1467 1470 1472 1475 1479 1482 1485 1487 1488 1489 1490 1490 1489 1489 1487 1485 1483 1481 1478 1474 1471 1467 1464 1460 1456 1451
1461 1465 1472 1479 1479 1470 1457 1453 1453 1456 1456 1451 1452 1454 1457 1460 1463 1466 1467 1468 1470 1473 1476 1479 1482 1484 1485 1486 1486 1486 1485 1484 1482 1480 1478 1475 1472 1468 1465 1461 1457 1453 1449 1444
1463 1463 1470 1475 1479 1477 1456 1452 1449 1454 1459 1449 1449 1452 1456 1460 1468 1466 1465 1467 1469 1472 1474 1477 1479 1481 1482 1482 1482 1481 1480 1479 1477 1475 1472 1470 1466 1463 1458 1454 1450 1446 1442 1436
1465 1466 1469 1471 1473 1463 1450 1450 1452 1463 1458 1450 1449 1451 1455 1458 1461 1462 1463 1465 1468 1470 1472 1474 1476 1478 1478 1478 1478 1477 1476 1474 1472 1469 1467 1464 1460 1456 1452 1447 1443 1439 1434 1429
1455 1461 1464 1465 1469 1463 1448 1450 1452 1451 1449 1449 1450 1452 1454 1457 1459 1460 1462 1464 1466 1468 1470 1472 1474 1474 1475 1474 1474 1472 1470 1469 1466 1463 1460 1457 1453 1449 1445 1441 1436 1432 1427 1421
1442 1444 1446 1448 1449 1442 1442 1443 1444 1445 1447 1448 1449 1451 1453 1455 1457 1459 1461 1463 1465 1467 1468 1470 1470 1471 1471 1470 1469 1467 1465 1463 1460 1457 1453 1450 1446 1442 1438 1434 1429 1424 1419 1414
1435 1435 1437 1439 1438 1438 1439 1441 1442 1444 1445 1446 1447 1449 1451 1453 1455 1457 1459 1461 1463 1465 1466 1467 1467 1467 1467 1466 1464 1462 1460 1457 1454 1450 1446 1443 1438 1434 1430 1426 1422 1417 1412 1407
1428 1433 1436 1436 1435 1436 1437 1438 1440 1441 1443 1444 1446 1447 1449 1451 1453 1455 1457 1459 1461 1462 1463 1463 1463 1463 1462 1461 1459 1457 1454 1451 1447 1443 1439 1435 1431 1426 1422 1418 1414 1409 1404 1401
1425 1429 1433 1433 1431 1433 1434 1435 1437 1438 1440 1441 1443 1445 1447 1449 1451 1453 1455 1456 1458 1459 1459 1459 1459 1458 1457 1455 1453 1450 1448 1444 1440 1435 1431 1427 1423 1418 1414 1408 1403 1399 1396 1392